{"data":{"norad_id":55173,"intl_designator":"2023-004AK","name":"ONEWEB-0710","alt_names":[],"object_type":"PAYLOAD","status":"ACTIVE","operator":null,"country":"UK","launch_date":"2023-01-10","launch_site_code":"AFETR","launch_vehicle":null,"mission":null,"orbit_class":"UNKNOWN","rcs_meters":null,"size_class":null,"mass_kg":null,"dimensions":null,"purposes":["comms"],"wikipedia_slug":null,"has_3d_model":false,"image_url":null,"decayed_at":null,"tle_current":{"epoch":"2026-05-25T02:51:38.201760Z","epoch_age_seconds":61803,"freshness":"FRESH","line1":"1 55173U 23004AK  26145.11919215  .00000426  00000+0  10638-2 0  9998","line2":"2 55173  87.9154  10.4536 0002027  88.2099 271.9264 13.17647673164549","mean_motion":13.17647673,"eccentricity":0.0002027,"inclination_deg":87.9154,"raan_deg":10.4536,"arg_perigee_deg":88.2099,"mean_anomaly_deg":271.9264,"bstar":0.0010638,"rev_number":16454,"period_min":109.28566334591,"perigee_km":1192.1835285136,"apogee_km":1195.2531586699,"semimajor_km":7571.8553435917,"source":"CELESTRAK","updated_at":"2026-05-25T13:38:22.646708Z"}}}